TimeCDT,TemperatureF,Dew PointF,Humidity,Sea Level PressureIn,VisibilityMPH,Wind Direction,Wind SpeedMPH,Gust SpeedMPH,PrecipitationIn,Events,Conditions,WindDirDegrees,DateUTC
12:52 AM,50.0,44.1,80,30.15,10.0,Calm,Calm,-,N/A,,Clear,0,2013-05-14 05:52:00
1:52 AM,50.0,43.0,77,30.13,10.0,Calm,Calm,-,N/A,,Clear,0,2013-05-14 06:52:00
2:52 AM,52.0,41.0,66,30.12,10.0,SSE,4.6,-,N/A,,Clear,160,2013-05-14 07:52:00
3:52 AM,50.0,42.1,74,30.12,10.0,SE,4.6,-,N/A,,Clear,130,2013-05-14 08:52:00
4:52 AM,48.9,42.1,77,30.11,10.0,SSE,6.9,-,N/A,,Clear,150,2013-05-14 09:52:00
5:52 AM,50.0,43.0,77,30.11,10.0,SE,6.9,-,N/A,,Clear,140,2013-05-14 10:52:00
6:52 AM,54.0,44.1,69,30.11,10.0,SSE,5.8,-,N/A,,Clear,150,2013-05-14 11:52:00
7:52 AM,61.0,48.0,62,30.11,10.0,South,6.9,-,N/A,,Clear,180,2013-05-14 12:52:00
8:52 AM,64.0,50.0,60,30.10,10.0,South,6.9,-,N/A,,Clear,190,2013-05-14 13:52:00
9:52 AM,70.0,53.1,55,30.08,10.0,South,10.4,-,N/A,,Clear,190,2013-05-14 14:52:00
10:52 AM,73.9,54.0,50,30.08,10.0,SSW,15.0,-,N/A,,Clear,200,2013-05-14 15:52:00
11:52 AM,78.1,55.9,46,30.06,10.0,SSW,12.7,-,N/A,,Clear,200,2013-05-14 16:52:00
12:52 PM,80.1,57.0,45,30.03,10.0,SSW,13.8,20.7,N/A,,Clear,200,2013-05-14 17:52:00
1:52 PM,82.9,55.0,38,30.00,10.0,SW,16.1,24.2,N/A,,Clear,220,2013-05-14 18:52:00
2:52 PM,84.9,55.0,36,29.98,10.0,SSW,17.3,25.3,N/A,,Clear,210,2013-05-14 19:52:00
3:52 PM,86.0,55.9,36,29.96,10.0,SSW,15.0,20.7,N/A,,Clear,210,2013-05-14 20:52:00
4:52 PM,86.0,55.9,36,29.96,10.0,SW,15.0,23.0,N/A,,Clear,220,2013-05-14 21:52:00
5:52 PM,84.9,55.9,37,29.95,10.0,SW,10.4,20.7,N/A,,Clear,230,2013-05-14 22:52:00
6:52 PM,82.0,55.9,41,29.95,10.0,SW,9.2,18.4,N/A,,Clear,220,2013-05-14 23:52:00
7:52 PM,79.0,55.9,45,29.95,10.0,SW,8.1,-,N/A,,Clear,220,2013-05-15 00:52:00
8:52 PM,77.0,57.0,50,29.96,10.0,SW,8.1,-,N/A,,Clear,220,2013-05-15 01:52:00
9:52 PM,75.9,57.0,52,29.97,10.0,SSW,9.2,-,N/A,,Clear,210,2013-05-15 02:52:00
10:52 PM,75.0,55.9,51,29.97,10.0,SW,9.2,21.9,N/A,,Clear,220,2013-05-15 03:52:00
11:52 PM,73.9,55.0,52,29.98,10.0,SW,12.7,19.6,N/A,,Clear,230,2013-05-15 04:52:00